CFG2369 VTSP-EDDF

Flight info

Callsign CFG2369
Flight time N/A
Altitude 38000
Route UBNEN1B UBNEN L645 MAPSO P628 RK G202 ZB L750 RANAH B449 DUKAN L850 ADEKI N644 BADIR DCT NOLGA UG261 TBN UM11 CRM UL746 ODERO DCT OPT DCT SOKRU DCT DEGET DCT BEGLA DCT FMD DCT DITIS DCT RAPET T170 GAPLA T178 KERAX KERAX5A
Aircraft A339/H-SADE1E2E3GHIJ3J5M1P2RWXY/LB2D1

Departure

Time N/A
Airport Phuket International Airport (VTSP)

Arrival

Time 2026-04-16 09:47
Airport Frankfurt Main Airport (EDDF)
Time Latitude Longitude Altitude Speed Heading
2026-04-16 06:31 41.89121 33.97126 38130 ft 421 kts 287°
2026-04-16 06:32 41.90839 33.89617 38138 ft 419 kts 287°
2026-04-16 06:32 41.92539 33.82154 38134 ft 423 kts 287°
2026-04-16 06:33 41.94286 33.74394 38139 ft 439 kts 286°
2026-04-16 06:33 41.95919 33.66493 38134 ft 439 kts 285°
2026-04-16 06:34 41.97482 33.58563 38134 ft 439 kts 285°
2026-04-16 06:34 41.99022 33.50604 38136 ft 439 kts 285°
2026-04-16 06:35 42.00543 33.42684 38139 ft 439 kts 284°
2026-04-16 06:35 42.02021 33.34930 38142 ft 439 kts 284°
2026-04-16 06:36 42.03450 33.27399 38135 ft 439 kts 284°
2026-04-16 06:36 42.04662 33.20988 38137 ft 439 kts 284°
2026-04-16 06:37 42.05710 33.15427 38139 ft 439 kts 284°
2026-04-16 06:37 42.06691 33.10260 38136 ft 439 kts 285°
2026-04-16 06:38 42.07740 33.04975 38145 ft 439 kts 285°
2026-04-16 06:38 42.08782 32.99828 38143 ft 439 kts 285°
2026-04-16 06:39 42.09750 32.95078 38142 ft 439 kts 285°
2026-04-16 06:39 42.10693 32.90460 38145 ft 439 kts 285°
2026-04-16 06:40 42.11555 32.86237 38142 ft 439 kts 285°
2026-04-16 06:40 42.12388 32.82145 38150 ft 439 kts 285°
2026-04-16 06:41 42.13113 32.78579 38150 ft 440 kts 285°
2026-04-16 06:41 42.13809 32.75144 38149 ft 440 kts 285°
2026-04-16 06:42 42.14504 32.71707 38154 ft 440 kts 285°
2026-04-16 06:42 42.15198 32.68268 38152 ft 440 kts 285°
2026-04-16 06:43 42.15863 32.64960 38155 ft 440 kts 285°
2026-04-16 06:43 42.16555 32.61518 38151 ft 440 kts 285°
2026-04-16 06:44 42.17247 32.58075 38151 ft 440 kts 285°
2026-04-16 06:44 42.17911 32.54763 38152 ft 440 kts 285°
2026-04-16 06:45 42.18627 32.51184 38152 ft 440 kts 285°
2026-04-16 06:45 42.19316 32.47736 38156 ft 440 kts 285°
2026-04-16 06:46 42.19977 32.44420 38154 ft 440 kts 285°
2026-04-16 06:46 42.20611 32.41234 38151 ft 441 kts 285°
2026-04-16 06:47 42.21295 32.37781 38153 ft 441 kts 285°
2026-04-16 06:47 42.21979 32.34327 38152 ft 441 kts 285°
2026-04-16 06:48 42.22688 32.30738 38154 ft 441 kts 285°
2026-04-16 06:48 42.23369 32.27280 38154 ft 441 kts 285°
2026-04-16 06:49 42.24049 32.23819 38154 ft 441 kts 284°
2026-04-16 06:49 42.24728 32.20357 38154 ft 441 kts 284°
2026-04-16 06:50 42.25379 32.17027 38151 ft 441 kts 284°
2026-04-16 06:50 42.26032 32.13695 38152 ft 442 kts 284°
2026-04-16 06:51 42.26711 32.10230 38158 ft 442 kts 284°
2026-04-16 06:51 42.27365 32.06896 38159 ft 442 kts 284°
2026-04-16 06:52 42.28019 32.03560 38161 ft 442 kts 284°
2026-04-16 06:52 42.28698 32.00090 38158 ft 442 kts 284°
2026-04-16 06:53 42.29351 31.96751 38162 ft 442 kts 284°
2026-04-16 06:53 42.30002 31.93412 38155 ft 442 kts 284°
2026-04-16 06:54 42.30652 31.90070 38155 ft 442 kts 284°
2026-04-16 06:54 42.31350 31.86476 38157 ft 442 kts 284°
2026-04-16 06:55 42.32858 31.78685 38159 ft 443 kts 284°
2026-04-16 06:55 42.34242 31.71494 38161 ft 443 kts 284°
2026-04-16 06:56 42.35321 31.65876 38163 ft 443 kts 284°
2026-04-16 06:56 42.36450 31.59974 38162 ft 443 kts 284°
2026-04-16 06:57 42.37879 31.52488 38161 ft 443 kts 284°
2026-04-16 06:57 42.39374 31.44613 38166 ft 443 kts 284°
2026-04-16 06:58 42.40888 31.36599 38165 ft 444 kts 284°
2026-04-16 06:58 42.42101 31.30164 38167 ft 444 kts 284°
2026-04-16 06:59 42.43011 31.25315 38170 ft 444 kts 284°
2026-04-16 06:59 42.43894 31.20600 38168 ft 444 kts 284°
2026-04-16 07:00 42.44774 31.15882 38165 ft 444 kts 284°
2026-04-16 07:01 42.45980 31.09409 38167 ft 444 kts 284°
2026-04-16 07:01 42.46883 31.04551 38168 ft 444 kts 284°
2026-04-16 07:02 42.47759 30.99826 38168 ft 444 kts 284°
2026-04-16 07:02 42.48609 30.95233 38175 ft 445 kts 284°
2026-04-16 07:03 42.49482 30.90501 38171 ft 445 kts 284°
2026-04-16 07:03 42.50328 30.85901 38176 ft 445 kts 284°
2026-04-16 07:04 42.51148 30.81432 38174 ft 445 kts 284°
2026-04-16 07:04 42.51693 30.78450 38170 ft 446 kts 284°
2026-04-16 07:05 42.52337 30.74926 38171 ft 445 kts 283°
2026-04-16 07:05 42.53103 30.70725 38176 ft 445 kts 283°
2026-04-16 07:06 42.53646 30.67742 38180 ft 446 kts 283°
2026-04-16 07:06 42.54312 30.64077 38179 ft 446 kts 283°
2026-04-16 07:07 42.55562 30.57168 38179 ft 446 kts 283°
2026-04-16 07:07 42.57039 30.48975 38177 ft 446 kts 283°
2026-04-16 07:08 42.58508 30.40781 38177 ft 446 kts 283°
2026-04-16 07:08 42.59961 30.32636 38184 ft 447 kts 283°
2026-04-16 07:08 42.60939 30.28648 38186 ft 447 kts 296°
2026-04-16 07:09 42.62582 30.24991 38191 ft 449 kts 302°
2026-04-16 07:09 42.66190 30.18109 38184 ft 450 kts 304°
2026-04-16 07:10 42.69946 30.11265 38186 ft 450 kts 305°
2026-04-16 07:10 42.73721 30.04489 38192 ft 450 kts 305°
2026-04-16 07:11 42.77525 29.97687 38193 ft 450 kts 305°
2026-04-16 07:11 42.81296 29.90951 38191 ft 451 kts 305°
2026-04-16 07:12 42.85125 29.84105 38192 ft 451 kts 305°
2026-04-16 07:12 42.88928 29.77299 38194 ft 451 kts 305°
2026-04-16 07:13 42.92708 29.70521 38195 ft 451 kts 305°
2026-04-16 07:13 42.96507 29.63700 38199 ft 451 kts 305°
2026-04-16 07:14 43.00310 29.56855 38196 ft 452 kts 305°
2026-04-16 07:14 43.04109 29.50006 38198 ft 452 kts 305°
2026-04-16 07:15 43.07891 29.43173 38208 ft 452 kts 305°
2026-04-16 07:15 43.11682 29.36309 38205 ft 453 kts 305°
2026-04-16 07:16 43.15490 29.29401 38212 ft 453 kts 305°
2026-04-16 07:16 43.19292 29.22485 38209 ft 453 kts 305°
2026-04-16 07:17 43.23055 29.15625 38208 ft 453 kts 305°
2026-04-16 07:17 43.26850 29.08693 38211 ft 454 kts 305°
2026-04-16 07:18 43.30634 29.01766 38210 ft 454 kts 305°
2026-04-16 07:18 43.34421 28.94816 38211 ft 454 kts 305°
2026-04-16 07:19 43.38202 28.87860 38203 ft 454 kts 305°
2026-04-16 07:19 43.41976 28.80899 38187 ft 454 kts 305°
2026-04-16 07:20 43.45754 28.73919 38206 ft 454 kts 305°
2026-04-16 07:20 43.49523 28.66938 38204 ft 454 kts 305°
2026-04-16 07:21 43.53268 28.59985 38191 ft 454 kts 305°
2026-04-16 07:21 43.57031 28.52981 38194 ft 454 kts 305°
2026-04-16 07:22 43.60786 28.45976 38199 ft 454 kts 305°
2026-04-16 07:22 43.64542 28.38952 38176 ft 454 kts 305°
2026-04-16 07:23 43.68296 28.31915 38175 ft 454 kts 305°
2026-04-16 07:23 43.72025 28.24908 38196 ft 455 kts 305°
2026-04-16 07:24 43.75667 28.18048 38199 ft 454 kts 305°
2026-04-16 07:24 43.78772 28.12188 38181 ft 455 kts 305°
2026-04-16 07:25 43.82030 28.06026 38201 ft 455 kts 305°
2026-04-16 07:25 43.85725 27.99021 38201 ft 455 kts 305°
2026-04-16 07:26 43.88763 27.93248 38196 ft 455 kts 305°
2026-04-16 07:26 43.91959 27.87165 38181 ft 455 kts 305°
2026-04-16 07:27 43.95656 27.80113 38182 ft 455 kts 305°
2026-04-16 07:27 43.99310 27.73125 38181 ft 455 kts 305°
2026-04-16 07:28 44.03027 27.65999 38200 ft 455 kts 305°
2026-04-16 07:28 44.06748 27.58848 38202 ft 456 kts 305°
2026-04-16 07:29 44.10436 27.51745 38201 ft 456 kts 305°
2026-04-16 07:29 44.14140 27.44592 38176 ft 456 kts 304°
2026-04-16 07:30 44.17856 27.37397 38179 ft 456 kts 305°
2026-04-16 07:30 44.21539 27.30247 38178 ft 456 kts 304°
2026-04-16 07:31 44.25243 27.23040 38197 ft 457 kts 305°
2026-04-16 07:31 44.28924 27.15859 38179 ft 457 kts 304°
2026-04-16 07:32 44.32591 27.08689 38178 ft 457 kts 305°
2026-04-16 07:32 44.36311 27.01398 38181 ft 457 kts 305°
2026-04-16 07:33 44.40006 26.94135 38183 ft 457 kts 305°
2026-04-16 07:33 44.43684 26.86889 38178 ft 457 kts 305°
2026-04-16 07:34 44.47346 26.79655 38188 ft 457 kts 305°
2026-04-16 07:34 44.51024 26.72372 38183 ft 457 kts 305°
2026-04-16 07:35 44.54692 26.65089 38203 ft 457 kts 305°
2026-04-16 07:35 44.58232 26.57676 38186 ft 457 kts 299°
2026-04-16 07:36 44.61156 26.49735 38189 ft 458 kts 296°
2026-04-16 07:36 44.63922 26.41687 38197 ft 458 kts 296°
2026-04-16 07:37 44.66623 26.33646 38202 ft 458 kts 295°
2026-04-16 07:37 44.69315 26.25542 38199 ft 458 kts 295°
2026-04-16 07:38 44.71998 26.17417 38216 ft 458 kts 295°
2026-04-16 07:38 44.74679 26.09259 38214 ft 458 kts 295°
2026-04-16 07:39 44.77346 26.01110 38193 ft 458 kts 295°
2026-04-16 07:39 44.80008 25.92949 38186 ft 459 kts 295°
2026-04-16 07:40 44.82663 25.84781 38181 ft 459 kts 295°
2026-04-16 07:40 44.85297 25.76651 38194 ft 458 kts 295°
2026-04-16 07:41 44.87944 25.68456 38190 ft 459 kts 295°
2026-04-16 07:41 44.90569 25.60301 38171 ft 459 kts 295°
2026-04-16 07:42 44.93207 25.52077 38167 ft 459 kts 295°
2026-04-16 07:42 44.95834 25.43860 38173 ft 460 kts 295°
2026-04-16 07:43 44.98510 25.35655 38175 ft 460 kts 297°
2026-04-16 07:43 45.01511 25.27668 38166 ft 460 kts 299°
2026-04-16 07:44 45.04596 25.19755 38163 ft 460 kts 300°
2026-04-16 07:44 45.07707 25.11837 38160 ft 460 kts 300°
2026-04-16 07:45 45.10820 25.03917 38162 ft 460 kts 300°
2026-04-16 07:45 45.13934 24.95981 38156 ft 461 kts 300°
2026-04-16 07:46 45.17006 24.88134 38158 ft 462 kts 300°
2026-04-16 07:46 45.20122 24.80155 38156 ft 463 kts 300°
2026-04-16 07:47 45.23236 24.72156 38160 ft 463 kts 300°
2026-04-16 07:47 45.26350 24.64134 38160 ft 464 kts 300°
2026-04-16 07:48 45.29463 24.56097 38161 ft 465 kts 300°
2026-04-16 07:48 45.32579 24.48027 38161 ft 466 kts 300°
2026-04-16 07:49 45.35691 24.39941 38164 ft 467 kts 299°
2026-04-16 07:49 45.38786 24.31876 38161 ft 467 kts 299°
2026-04-16 07:50 45.41895 24.23748 38158 ft 468 kts 299°
2026-04-16 07:50 45.44998 24.15609 38160 ft 468 kts 300°
2026-04-16 07:51 45.48102 24.07444 38158 ft 469 kts 300°
2026-04-16 07:51 45.51206 23.99252 38157 ft 470 kts 300°
2026-04-16 07:52 45.54303 23.91061 38160 ft 470 kts 300°
2026-04-16 07:52 45.56879 23.84226 38159 ft 470 kts 300°
2026-04-16 07:53 45.59973 23.75989 38160 ft 470 kts 300°
2026-04-16 07:53 45.63066 23.67737 38158 ft 471 kts 300°
2026-04-16 07:54 45.66151 23.59477 38164 ft 471 kts 300°
2026-04-16 07:54 45.69224 23.51224 38166 ft 470 kts 300°
2026-04-16 07:55 45.72291 23.42965 38160 ft 470 kts 300°
2026-04-16 07:55 45.75353 23.34694 38159 ft 469 kts 300°
2026-04-16 07:56 45.78383 23.26487 38160 ft 469 kts 300°
2026-04-16 07:56 45.81426 23.18226 38159 ft 469 kts 300°
2026-04-16 07:57 45.84476 23.09920 38161 ft 469 kts 300°
2026-04-16 07:57 45.87511 23.01630 38159 ft 470 kts 300°
2026-04-16 07:58 45.90549 22.93304 38156 ft 470 kts 300°
2026-04-16 07:58 45.93575 22.84989 38156 ft 470 kts 300°
2026-04-16 07:59 45.95421 22.79902 38159 ft 470 kts 300°
2026-04-16 07:59 45.98481 22.71448 38156 ft 471 kts 300°
2026-04-16 08:00 46.01499 22.63083 38163 ft 471 kts 300°
2026-04-16 08:00 46.04514 22.54704 38158 ft 471 kts 300°
2026-04-16 08:01 46.07519 22.46324 38160 ft 471 kts 300°
2026-04-16 08:01 46.10522 22.37926 38163 ft 471 kts 300°
2026-04-16 08:02 46.13487 22.29605 38156 ft 472 kts 300°
2026-04-16 08:02 46.17982 22.16938 38155 ft 472 kts 300°
2026-04-16 08:03 46.20970 22.08481 38160 ft 472 kts 300°
2026-04-16 08:03 46.23948 22.00027 38158 ft 472 kts 300°
2026-04-16 08:04 46.26923 21.91552 38159 ft 473 kts 300°
2026-04-16 08:04 46.29894 21.83067 38156 ft 473 kts 300°
2026-04-16 08:05 46.32855 21.74579 38159 ft 473 kts 300°
2026-04-16 08:05 46.35811 21.66078 38172 ft 473 kts 299°
2026-04-16 08:06 46.38749 21.57606 38164 ft 473 kts 299°
2026-04-16 08:06 46.41694 21.49082 38167 ft 473 kts 299°
2026-04-16 08:07 46.44639 21.40528 38172 ft 473 kts 299°
2026-04-16 08:07 46.47569 21.31983 38171 ft 473 kts 299°
2026-04-16 08:08 46.50519 21.23448 38170 ft 473 kts 299°
2026-04-16 08:08 46.53488 21.14898 38166 ft 473 kts 299°
2026-04-16 08:09 46.56434 21.06401 38169 ft 473 kts 299°
2026-04-16 08:09 46.59389 20.97852 38164 ft 473 kts 299°
2026-04-16 08:10 46.62336 20.89296 38170 ft 473 kts 299°
2026-04-16 08:10 46.65273 20.80739 38172 ft 472 kts 299°
2026-04-16 08:11 46.68201 20.72178 38169 ft 472 kts 299°
2026-04-16 08:11 46.71102 20.63667 38171 ft 472 kts 299°
2026-04-16 08:12 46.74016 20.55094 38171 ft 472 kts 299°
2026-04-16 08:12 46.76928 20.46502 38169 ft 472 kts 299°
2026-04-16 08:13 46.79829 20.37908 38178 ft 471 kts 299°
2026-04-16 08:13 46.82705 20.29362 38176 ft 472 kts 298°
2026-04-16 08:14 46.85596 20.20744 38179 ft 472 kts 298°
2026-04-16 08:14 46.88477 20.12127 38181 ft 471 kts 298°
2026-04-16 08:15 46.91354 20.03493 38175 ft 471 kts 298°
2026-04-16 08:15 46.94216 19.94873 38176 ft 471 kts 298°
2026-04-16 08:16 46.97056 19.86293 38176 ft 471 kts 298°
2026-04-16 08:16 46.99909 19.77643 38173 ft 471 kts 298°
2026-04-16 08:17 47.02753 19.68990 38170 ft 470 kts 298°
2026-04-16 08:17 47.05589 19.60338 38171 ft 470 kts 298°
2026-04-16 08:19 47.16831 19.25736 38180 ft 469 kts 297°
2026-04-16 08:20 47.19608 19.17116 38177 ft 469 kts 297°
2026-04-16 08:20 47.22388 19.08455 38179 ft 468 kts 297°
2026-04-16 08:21 47.25166 18.99773 38178 ft 468 kts 297°
2026-04-16 08:21 47.27934 18.91089 38179 ft 468 kts 297°
2026-04-16 08:22 47.30694 18.82400 38182 ft 468 kts 296°
2026-04-16 08:22 47.32079 18.78030 37914 ft 470 kts 296°
2026-04-16 08:22 47.33464 18.73661 36993 ft 471 kts 296°
2026-04-16 08:23 47.34483 18.70439 36439 ft 469 kts 296°
2026-04-16 08:23 47.35385 18.67588 35978 ft 470 kts 296°
2026-04-16 08:23 47.36756 18.63256 35765 ft 462 kts 296°
2026-04-16 08:23 47.38096 18.58933 35286 ft 467 kts 295°
2026-04-16 08:24 47.40826 18.50117 35268 ft 474 kts 295°
2026-04-16 08:24 47.43589 18.41278 35271 ft 474 kts 295°
2026-04-16 08:25 47.46256 18.32720 35278 ft 473 kts 295°
2026-04-16 08:25 47.49224 18.24046 35291 ft 464 kts 305°
2026-04-16 08:26 47.53339 18.17116 35057 ft 470 kts 311°
2026-04-16 08:26 47.55335 18.13275 35045 ft 473 kts 300°
2026-04-16 08:26 47.56618 18.08802 35086 ft 473 kts 289°
2026-04-16 08:27 47.58631 17.99513 35088 ft 473 kts 288°
2026-04-16 08:27 47.60699 17.90268 35095 ft 473 kts 289°
2026-04-16 08:28 47.62931 17.81139 35098 ft 473 kts 291°
2026-04-16 08:28 47.65342 17.72080 35100 ft 473 kts 293°
2026-04-16 08:29 47.67006 17.66273 35092 ft 472 kts 294°
2026-04-16 08:29 47.69619 17.57394 35102 ft 462 kts 294°
2026-04-16 08:30 47.72146 17.48816 34647 ft 451 kts 294°
2026-04-16 08:30 47.73425 17.44464 34408 ft 462 kts 294°
2026-04-16 08:30 47.74703 17.40104 34291 ft 457 kts 293°
2026-04-16 08:31 47.77195 17.31572 34235 ft 443 kts 293°
2026-04-16 08:31 47.79642 17.23170 34223 ft 444 kts 293°
2026-04-16 08:32 47.82096 17.14736 34205 ft 448 kts 293°
2026-04-16 08:32 47.85390 17.06935 34202 ft 447 kts 308°
2026-04-16 08:33 47.89398 16.99837 34207 ft 448 kts 309°
2026-04-16 08:33 47.93473 16.92795 34225 ft 448 kts 310°
2026-04-16 08:34 47.97547 16.85754 34207 ft 449 kts 309°
2026-04-16 08:34 48.01597 16.78687 34208 ft 446 kts 309°
2026-04-16 08:35 48.05595 16.71652 34208 ft 447 kts 309°
2026-04-16 08:35 48.09652 16.64416 34207 ft 464 kts 308°
2026-04-16 08:36 48.13788 16.56808 34205 ft 474 kts 308°
2026-04-16 08:36 48.17914 16.49136 34235 ft 471 kts 307°
2026-04-16 08:37 48.21996 16.41496 34217 ft 472 kts 307°
2026-04-16 08:37 48.26089 16.33825 34213 ft 472 kts 307°
2026-04-16 08:38 48.30226 16.26065 34216 ft 473 kts 307°
2026-04-16 08:38 48.34298 16.18408 34218 ft 472 kts 307°
2026-04-16 08:39 48.38400 16.10670 34214 ft 471 kts 307°
2026-04-16 08:39 48.42484 16.02944 34218 ft 471 kts 306°
2026-04-16 08:40 48.45862 15.96535 34219 ft 470 kts 306°
2026-04-16 08:40 48.50585 15.87545 34220 ft 470 kts 306°
2026-04-16 08:41 48.54634 15.79811 34216 ft 469 kts 306°
2026-04-16 08:41 48.58676 15.72070 34225 ft 469 kts 306°
2026-04-16 08:42 48.62035 15.65620 34219 ft 469 kts 306°
2026-04-16 08:42 48.66064 15.57860 34223 ft 468 kts 306°
2026-04-16 08:43 48.70083 15.50099 34218 ft 468 kts 306°
2026-04-16 08:43 48.74084 15.42346 34223 ft 467 kts 306°
2026-04-16 08:44 48.78049 15.34640 34223 ft 467 kts 305°
2026-04-16 08:44 48.82040 15.26860 34224 ft 466 kts 305°
2026-04-16 08:45 48.86013 15.19088 34225 ft 466 kts 305°
2026-04-16 08:45 48.89955 15.11271 34226 ft 465 kts 304°
2026-04-16 08:46 48.93843 15.03391 34228 ft 465 kts 304°
2026-04-16 08:46 48.97674 14.95560 34228 ft 464 kts 304°
2026-04-16 08:47 49.01521 14.87659 34224 ft 464 kts 304°
2026-04-16 08:47 49.05362 14.79746 34229 ft 464 kts 303°
2026-04-16 08:48 49.09191 14.71829 34228 ft 464 kts 303°
2026-04-16 08:48 49.13016 14.63896 34233 ft 464 kts 303°
2026-04-16 08:49 49.16830 14.55963 34230 ft 463 kts 303°
2026-04-16 08:49 49.20642 14.48008 34230 ft 463 kts 303°
2026-04-16 08:50 49.24454 14.40032 34232 ft 463 kts 303°
2026-04-16 08:50 49.28223 14.32120 34231 ft 463 kts 303°
2026-04-16 08:51 49.32008 14.24152 34230 ft 462 kts 303°
2026-04-16 08:51 49.35792 14.16164 34229 ft 462 kts 303°
2026-04-16 08:52 49.39565 14.08171 34227 ft 462 kts 303°
2026-04-16 08:52 49.43324 14.00184 34225 ft 461 kts 302°
2026-04-16 08:53 49.47050 13.92244 34225 ft 461 kts 302°
2026-04-16 08:53 49.50788 13.84252 34227 ft 460 kts 302°
2026-04-16 08:54 49.54515 13.76261 34230 ft 459 kts 302°
2026-04-16 08:54 49.58232 13.68266 34229 ft 458 kts 302°
2026-04-16 08:55 49.61939 13.60271 34226 ft 458 kts 302°
2026-04-16 08:55 49.65638 13.52269 34230 ft 457 kts 302°
2026-04-16 08:56 49.69329 13.44261 34222 ft 457 kts 302°
2026-04-16 08:56 49.72976 13.36322 34220 ft 456 kts 302°
2026-04-16 08:57 49.76670 13.28258 34218 ft 456 kts 302°
2026-04-16 08:57 49.80303 13.20302 34222 ft 456 kts 302°
2026-04-16 08:58 49.83958 13.12276 34223 ft 455 kts 301°
2026-04-16 08:58 49.87598 13.04254 34223 ft 455 kts 301°
2026-04-16 08:59 49.91229 12.96229 34224 ft 454 kts 301°
2026-04-16 08:59 49.94855 12.88192 34219 ft 454 kts 301°
2026-04-16 09:00 49.98465 12.80164 34210 ft 453 kts 301°
2026-04-16 09:00 50.02068 12.72128 34221 ft 452 kts 301°
2026-04-16 09:01 50.05582 12.64276 34024 ft 428 kts 301°
2026-04-16 09:01 50.07268 12.60507 33646 ft 421 kts 301°
2026-04-16 09:01 50.08929 12.56770 33123 ft 418 kts 301°
2026-04-16 09:02 50.10556 12.53100 32646 ft 414 kts 301°
2026-04-16 09:02 50.12180 12.49431 32156 ft 411 kts 301°
2026-04-16 09:02 50.13798 12.45768 31672 ft 408 kts 301°
2026-04-16 09:02 50.15397 12.42145 31207 ft 405 kts 301°
2026-04-16 09:03 50.16978 12.38521 30533 ft 405 kts 299°
2026-04-16 09:03 50.18326 12.34593 29877 ft 403 kts 293°
2026-04-16 09:03 50.19459 12.30670 29354 ft 399 kts 291°
2026-04-16 09:03 50.20519 12.26695 28797 ft 396 kts 290°
2026-04-16 09:04 50.21527 12.22711 28293 ft 393 kts 290°
2026-04-16 09:04 50.22501 12.18716 27747 ft 390 kts 289°
2026-04-16 09:04 50.23438 12.14756 27232 ft 388 kts 289°
2026-04-16 09:04 50.24355 12.10809 26731 ft 385 kts 289°
2026-04-16 09:05 50.25257 12.06874 26243 ft 383 kts 289°
2026-04-16 09:05 50.26150 12.02968 25763 ft 381 kts 289°
2026-04-16 09:05 50.27029 11.99122 25294 ft 379 kts 289°
2026-04-16 09:05 50.27913 11.95252 24854 ft 377 kts 289°
2026-04-16 09:06 50.28798 11.91373 24391 ft 376 kts 289°
2026-04-16 09:06 50.29671 11.87546 23963 ft 374 kts 289°
2026-04-16 09:06 50.30546 11.83713 23508 ft 372 kts 289°
2026-04-16 09:06 50.31413 11.79916 23050 ft 370 kts 289°
2026-04-16 09:07 50.32277 11.76135 22607 ft 368 kts 289°
2026-04-16 09:07 50.33135 11.72376 22178 ft 366 kts 289°
2026-04-16 09:07 50.33988 11.68632 21751 ft 364 kts 289°
2026-04-16 09:07 50.34824 11.64947 21369 ft 362 kts 289°
2026-04-16 09:08 50.35663 11.61240 20962 ft 360 kts 289°
2026-04-16 09:08 50.36497 11.57544 20575 ft 359 kts 289°
2026-04-16 09:08 50.37327 11.53863 20174 ft 357 kts 289°
2026-04-16 09:08 50.38150 11.50204 19794 ft 355 kts 289°
2026-04-16 09:09 50.38971 11.46555 19416 ft 354 kts 289°
2026-04-16 09:09 50.39784 11.42928 19049 ft 353 kts 289°
2026-04-16 09:09 50.40593 11.39312 18738 ft 346 kts 289°
2026-04-16 09:09 50.41385 11.35768 18221 ft 350 kts 289°
2026-04-16 09:10 50.42188 11.32165 17828 ft 348 kts 289°
2026-04-16 09:10 50.42982 11.28593 17483 ft 348 kts 289°
2026-04-16 09:10 50.43777 11.25010 17320 ft 347 kts 289°
2026-04-16 09:10 50.44563 11.21458 17268 ft 343 kts 289°
2026-04-16 09:11 50.45343 11.17938 17225 ft 341 kts 289°
2026-04-16 09:11 50.46121 11.14420 17214 ft 343 kts 289°
2026-04-16 09:11 50.46845 11.10864 17217 ft 345 kts 282°
2026-04-16 09:11 50.47048 11.07067 17225 ft 346 kts 271°
2026-04-16 09:12 50.47039 11.03293 17239 ft 346 kts 270°
2026-04-16 09:12 50.47000 10.99518 17219 ft 345 kts 269°
2026-04-16 09:12 50.46958 10.95809 17235 ft 345 kts 270°
2026-04-16 09:12 50.46918 10.92031 17220 ft 346 kts 270°
2026-04-16 09:13 50.46889 10.88243 17236 ft 346 kts 270°
2026-04-16 09:13 50.46871 10.84457 17186 ft 346 kts 270°
2026-04-16 09:13 50.46865 10.80693 17000 ft 344 kts 270°
2026-04-16 09:13 50.46870 10.76928 16636 ft 343 kts 270°
2026-04-16 09:14 50.46883 10.73192 16236 ft 341 kts 271°
2026-04-16 09:14 50.46902 10.69428 15671 ft 352 kts 271°
2026-04-16 09:14 50.46927 10.65602 15823 ft 352 kts 271°
2026-04-16 09:14 50.46953 10.61739 16054 ft 358 kts 271°
2026-04-16 09:15 50.46982 10.57782 16148 ft 362 kts 271°
2026-04-16 09:15 50.47013 10.53834 16200 ft 361 kts 271°
2026-04-16 09:15 50.47042 10.49899 16214 ft 359 kts 271°
2026-04-16 09:15 50.47073 10.45959 16224 ft 369 kts 271°
2026-04-16 09:16 50.47107 10.41790 16224 ft 392 kts 271°
2026-04-16 09:16 50.47141 10.37457 16227 ft 407 kts 271°
2026-04-16 09:16 50.47174 10.33013 16227 ft 407 kts 271°
2026-04-16 09:16 50.47205 10.28580 16228 ft 406 kts 271°
2026-04-16 09:17 50.47235 10.24128 16230 ft 408 kts 271°
2026-04-16 09:17 50.47265 10.19687 16225 ft 408 kts 271°
2026-04-16 09:17 50.47291 10.15214 16222 ft 408 kts 271°
2026-04-16 09:17 50.47316 10.10770 16220 ft 407 kts 271°
2026-04-16 09:18 50.47339 10.06338 16084 ft 405 kts 271°
2026-04-16 09:18 50.47362 10.01929 15697 ft 404 kts 271°
2026-04-16 09:18 50.47382 9.97530 15170 ft 401 kts 271°
2026-04-16 09:18 50.47402 9.93155 14525 ft 398 kts 271°
2026-04-16 09:19 50.47418 9.88837 13889 ft 395 kts 270°
2026-04-16 09:19 50.47432 9.84542 13225 ft 392 kts 270°
2026-04-16 09:19 50.47445 9.80270 12575 ft 389 kts 271°
2026-04-16 09:19 50.47456 9.76045 11943 ft 387 kts 270°
2026-04-16 09:20 50.47468 9.71776 11564 ft 392 kts 271°
2026-04-16 09:20 50.47479 9.67572 11157 ft 375 kts 271°
2026-04-16 09:20 50.47486 9.63759 11423 ft 338 kts 270°
2026-04-16 09:20 50.47459 9.60124 11285 ft 326 kts 266°
2026-04-16 09:21 50.47085 9.56694 11250 ft 312 kts 258°
2026-04-16 09:21 50.46567 9.53432 11231 ft 303 kts 256°
2026-04-16 09:21 50.46009 9.50262 11233 ft 302 kts 255°
2026-04-16 09:21 50.45423 9.47085 11234 ft 305 kts 255°
2026-04-16 09:22 50.44819 9.43883 11229 ft 306 kts 255°
2026-04-16 09:22 50.44203 9.40675 11225 ft 305 kts 254°
2026-04-16 09:22 50.43588 9.37489 11232 ft 305 kts 254°
2026-04-16 09:22 50.42974 9.34309 11227 ft 305 kts 254°
2026-04-16 09:23 50.42361 9.31115 11225 ft 306 kts 254°
2026-04-16 09:23 50.41740 9.27924 11227 ft 305 kts 254°
2026-04-16 09:23 50.41096 9.24756 11228 ft 304 kts 253°
2026-04-16 09:23 50.40425 9.21645 11226 ft 305 kts 252°
2026-04-16 09:24 50.39719 9.18507 11228 ft 306 kts 251°
2026-04-16 09:24 50.38998 9.15375 11232 ft 305 kts 251°
2026-04-16 09:24 50.38266 9.12246 11239 ft 305 kts 251°
2026-04-16 09:24 50.37534 9.09128 11230 ft 304 kts 251°
2026-04-16 09:25 50.36805 9.06013 11235 ft 304 kts 251°
2026-04-16 09:25 50.36074 9.02895 11240 ft 305 kts 251°
2026-04-16 09:25 50.35340 8.99764 11233 ft 305 kts 251°
2026-04-16 09:25 50.34606 8.96647 11235 ft 304 kts 251°
2026-04-16 09:26 50.33887 8.93573 11232 ft 304 kts 251°
2026-04-16 09:26 50.33168 8.90497 11225 ft 296 kts 251°
2026-04-16 09:26 50.32470 8.87517 11225 ft 289 kts 250°
2026-04-16 09:26 50.31445 8.84836 11230 ft 293 kts 227°
2026-04-16 09:27 50.30080 8.83357 11243 ft 301 kts 205°
2026-04-16 09:27 50.27992 8.82760 11241 ft 308 kts 179°
2026-04-16 09:27 50.25922 8.83622 11247 ft 312 kts 155°
2026-04-16 09:27 50.24136 8.85555 11244 ft 315 kts 134°
2026-04-16 09:28 50.22974 8.88449 11238 ft 318 kts 110°
2026-04-16 09:28 50.22660 8.91853 11148 ft 317 kts 85°
2026-04-16 09:28 50.23152 8.95164 11197 ft 316 kts 70°
2026-04-16 09:28 50.23972 8.98368 11149 ft 317 kts 64°
2026-04-16 09:29 50.24845 9.01546 10992 ft 318 kts 68°
2026-04-16 09:29 50.25608 9.04792 10663 ft 319 kts 68°
2026-04-16 09:29 50.26375 9.08037 10306 ft 317 kts 68°
2026-04-16 09:29 50.27126 9.11273 9947 ft 315 kts 69°
2026-04-16 09:30 50.27868 9.14487 9574 ft 312 kts 69°
2026-04-16 09:30 50.28357 9.16603 9331 ft 311 kts 69°
2026-04-16 09:30 50.29322 9.20785 8840 ft 306 kts 69°
2026-04-16 09:30 50.30043 9.23898 8490 ft 303 kts 69°
2026-04-16 09:31 50.30755 9.26996 8139 ft 300 kts 69°
2026-04-16 09:31 50.31463 9.30054 7806 ft 298 kts 69°
2026-04-16 09:31 50.31956 9.32100 7581 ft 296 kts 68°
2026-04-16 09:31 50.32609 9.34968 7295 ft 294 kts 70°
2026-04-16 09:32 50.32964 9.36597 7129 ft 293 kts 70°
2026-04-16 09:32 50.33635 9.39589 6812 ft 290 kts 70°
2026-04-16 09:32 50.34297 9.42551 6498 ft 287 kts 70°
2026-04-16 09:32 50.34747 9.45574 6146 ft 286 kts 88°
2026-04-16 09:33 50.34351 9.48595 5803 ft 287 kts 116°
2026-04-16 09:33 50.33127 9.50989 5475 ft 284 kts 144°
2026-04-16 09:33 50.31367 9.52255 5214 ft 278 kts 171°
2026-04-16 09:33 50.29475 9.52121 5084 ft 271 kts 199°
2026-04-16 09:34 50.27876 9.50618 5026 ft 270 kts 227°
2026-04-16 09:34 50.26948 9.48113 4999 ft 270 kts 255°
2026-04-16 09:34 50.26543 9.45246 5004 ft 272 kts 253°
2026-04-16 09:34 50.25823 9.42537 5008 ft 263 kts 246°
2026-04-16 09:35 50.25055 9.40084 4972 ft 247 kts 245°
2026-04-16 09:35 50.24382 9.37706 4964 ft 232 kts 250°
2026-04-16 09:35 50.23831 9.35376 4971 ft 223 kts 250°
2026-04-16 09:35 50.23309 9.33160 4995 ft 212 kts 251°
2026-04-16 09:36 50.22805 9.30976 5015 ft 216 kts 251°
2026-04-16 09:36 50.22306 9.28760 5001 ft 216 kts 251°
2026-04-16 09:36 50.21795 9.26543 5011 ft 217 kts 251°
2026-04-16 09:36 50.21285 9.24309 5004 ft 217 kts 251°
2026-04-16 09:37 50.20803 9.22078 5031 ft 219 kts 251°
2026-04-16 09:37 50.20251 9.19877 5006 ft 216 kts 250°
2026-04-16 09:37 50.19729 9.17668 5015 ft 217 kts 251°
2026-04-16 09:37 50.19231 9.15462 5031 ft 218 kts 251°
2026-04-16 09:38 50.18737 9.13229 5022 ft 217 kts 252°
2026-04-16 09:38 50.18210 9.11032 5011 ft 212 kts 249°
2026-04-16 09:38 50.17704 9.08974 5025 ft 191 kts 251°
2026-04-16 09:38 50.17253 9.07026 4746 ft 192 kts 250°
2026-04-16 09:39 50.16810 9.05113 4584 ft 185 kts 251°
2026-04-16 09:39 50.16377 9.03224 4287 ft 184 kts 251°
2026-04-16 09:39 50.15937 9.01354 3958 ft 183 kts 250°
2026-04-16 09:39 50.15500 8.99512 3535 ft 182 kts 250°
2026-04-16 09:40 50.15086 8.97715 3364 ft 169 kts 252°
2026-04-16 09:40 50.14714 8.96041 3163 ft 159 kts 249°
2026-04-16 09:40 50.14317 8.94470 3089 ft 154 kts 248°
2026-04-16 09:40 50.13941 8.92918 3099 ft 154 kts 251°
2026-04-16 09:41 50.13587 8.91354 3095 ft 152 kts 250°
2026-04-16 09:41 50.13216 8.89804 3057 ft 152 kts 250°
2026-04-16 09:41 50.12847 8.88232 3033 ft 157 kts 251°
2026-04-16 09:41 50.12480 8.86656 2987 ft 153 kts 251°
2026-04-16 09:42 50.12122 8.85109 3004 ft 154 kts 250°
2026-04-16 09:42 50.11751 8.83541 2990 ft 154 kts 250°
2026-04-16 09:42 50.11379 8.81992 2944 ft 153 kts 251°
2026-04-16 09:42 50.11014 8.80446 3026 ft 152 kts 250°
2026-04-16 09:43 50.10648 8.78898 3033 ft 152 kts 250°
2026-04-16 09:43 50.10285 8.77354 2890 ft 153 kts 251°
2026-04-16 09:43 50.09919 8.75781 2749 ft 155 kts 250°
2026-04-16 09:43 50.09566 8.74237 2474 ft 153 kts 250°
2026-04-16 09:44 50.09156 8.72793 2473 ft 143 kts 248°
2026-04-16 09:44 50.08797 8.71264 2343 ft 152 kts 252°
2026-04-16 09:44 50.08479 8.69700 2186 ft 151 kts 252°
2026-04-16 09:44 50.08119 8.68171 2096 ft 150 kts 249°
2026-04-16 09:45 50.07791 8.66661 1914 ft 147 kts 252°
2026-04-16 09:45 50.07460 8.65174 1768 ft 143 kts 250°
2026-04-16 09:45 50.07107 8.63731 1736 ft 143 kts 249°
2026-04-16 09:45 50.06729 8.62287 1555 ft 147 kts 248°
2026-04-16 09:46 50.06365 8.60822 1462 ft 144 kts 249°
2026-04-16 09:46 50.06029 8.59367 1221 ft 144 kts 250°
2026-04-16 09:46 50.05697 8.57888 960 ft 145 kts 249°
2026-04-16 09:46 50.05355 8.56436 782 ft 141 kts 248°
2026-04-16 09:47 50.04970 8.55036 585 ft 140 kts 248°
2026-04-16 09:47 50.04652 8.53607 424 ft 141 kts 249°
2026-04-16 09:47 50.04305 8.52210 352 ft 127 kts 250°
2026-04-16 09:47 50.04098 8.51344 334 ft 47 kts 250°
2026-04-16 09:48 50.03991 8.51036 329 ft 29 kts 225°
2026-04-16 09:48 50.03872 8.50872 327 ft 19 kts 219°
2026-04-16 09:48 50.03813 8.50845 330 ft 4 kts 167°
2026-04-16 09:48 50.03785 8.50910 329 ft 12 kts 96°
2026-04-16 09:49 50.03821 8.51102 331 ft 26 kts 70°
2026-04-16 09:49 50.03894 8.51402 334 ft 33 kts 70°
2026-04-16 09:49 50.03982 8.51774 338 ft 36 kts 69°
2026-04-16 09:49 50.04063 8.52114 351 ft 20 kts 70°
2026-04-16 09:50 50.04127 8.52380 356 ft 32 kts 69°
2026-04-16 09:50 50.04207 8.52710 355 ft 32 kts 69°
2026-04-16 09:50 50.04283 8.53022 360 ft 28 kts 69°
2026-04-16 09:50 50.04349 8.53300 366 ft 22 kts 69°
2026-04-16 09:51 50.04395 8.53532 370 ft 24 kts 82°
2026-04-16 09:51 50.04411 8.53766 370 ft 17 kts 83°
2026-04-16 09:51 50.04425 8.53972 365 ft 21 kts 84°
2026-04-16 09:51 50.04441 8.54242 367 ft 29 kts 84°
2026-04-16 09:52 50.04440 8.54540 370 ft 28 kts 105°
2026-04-16 09:52 50.04312 8.54772 372 ft 30 kts 152°
2026-04-16 09:52 50.04165 8.54855 368 ft 21 kts 160°
2026-04-16 09:52 50.04078 8.54904 367 ft 0 kts 159°
2026-04-16 09:53 50.04031 8.54931 367 ft 15 kts 159°
2026-04-16 09:54 50.03925 8.54996 366 ft 14 kts 159°
2026-04-16 09:54 50.03852 8.55096 371 ft 14 kts 95°
2026-04-16 09:54 50.03889 8.55287 371 ft 23 kts 69°
2026-04-16 09:54 50.03957 8.55562 368 ft 28 kts 69°
2026-04-16 09:55 50.03998 8.55739 369 ft 15 kts 71°
2026-04-16 09:55 50.04036 8.55903 370 ft 14 kts 70°
2026-04-16 09:55 50.04080 8.56088 368 ft 22 kts 69°
2026-04-16 09:55 50.04113 8.56220 367 ft 1 kts 69°
2026-04-16 09:56 50.04136 8.56316 364 ft 20 kts 69°
2026-04-16 09:56 50.04197 8.56569 367 ft 26 kts 70°
2026-04-16 09:56 50.04244 8.56757 368 ft 16 kts 58°
2026-04-16 09:56 50.04355 8.56833 371 ft 21 kts 13°
2026-04-16 09:57 50.04474 8.56931 370 ft 22 kts 61°
2026-04-16 09:57 50.04546 8.57226 371 ft 32 kts 70°
2026-04-16 09:57 50.04590 8.57413 370 ft 10 kts 70°
2026-04-16 09:57 50.04617 8.57527 368 ft 14 kts 70°
2026-04-16 09:58 50.04659 8.57706 371 ft 14 kts 70°
2026-04-16 09:58 50.04700 8.57867 369 ft 17 kts 56°
2026-04-16 09:58 50.04779 8.57900 369 ft 10 kts 340°
2026-04-16 09:58 50.04849 8.57826 367 ft 16 kts 306°
2026-04-16 09:59 50.04885 8.57711 368 ft 1 kts 294°
2026-04-16 09:59 50.04878 8.57656 368 ft 6 kts 236°
2026-04-16 09:59 50.04864 8.57645 368 ft 2 kts 204°
2026-04-16 09:59 50.04841 8.57630 369 ft 6 kts 203°
2026-04-16 10:00 50.04835 8.57626 369 ft 0 kts 203°